Regional Weather Roundup
Issued by NWS

Home | Current Version | Previous Version | Text Only | Print | Product List | Glossary Off
Versions: 1 2 3 4 5 6 7 8 9 10 11 12 13 14 15 16 17 18 19 20 21 22 23 24 25 26 27 28 29 30 31 32 33 34 35 36 37 38 39 40 41 42 43 44 45 46 47 48 49 50

783
ASUS43 KLMK 291910
RWRKY
KENTUCKY REGIONAL WEATHER ROUNDUP
NATIONAL WEATHER SERVICE LOUISVILLE KY
300 PM EDT THU SEP 29 2016

NOTE "FAIR" INDICATES FEW OR NO CLOUDS BELOW 12,000 FEET
WITH NO SIGNIFICANT WEATHER AND/OR OBSTRUCTIONS TO VISIBILITY.

KYZ001>023-026-027-061>063-070>075-292000-
WESTERN AND SOUTH CENTRAL KENTUCKY

CITY           SKY/WX    TMP DP  RH WIND       PRES   REMARKS
PADUCAH        CLOUDY    61  56  83 W8        30.11F
HENDERSON      CLOUDY    63  52  67 N7        30.08S
OWENSBORO      PTSUNNY  N/A N/A N/A VRB3      30.08F
HOPKINSVILLE   CLOUDY    59  53  79 NW8       30.09F
BOWLING GREEN  CLOUDY    64  51  62 VRB5      30.08F
GLASGOW        CLOUDY    61  51  69 W5        30.08F
$$

KYZ024-025-028>034-038-045-046-053-292000-
NORTH CENTRAL KENTUCKY

CITY           SKY/WX    TMP DP  RH WIND       PRES   REMARKS
LOUISVILLE/SDF CLOUDY    63  50  62 N9        30.07S
LOUISVILLE/LOU LGT RAIN  61  53  75 N5        30.08S
FORT KNOX      CLOUDY    61  50  67 NW2       30.06S
$$

KYZ035>037-039>044-047>052-055>060-089>105-292000-
NORTHEAST KENTUCKY

CITY           SKY/WX    TMP DP  RH WIND       PRES   REMARKS
LEXINGTON      CLOUDY    64  48  56 VRB6      30.06S
COVINGTON      PTSUNNY   65  53  65 N6        30.07F
FRANKFORT      CLOUDY    63  51  65 N5        30.06S
$$

KYZ054-064>069-076>088-106>120-292000-
SOUTHEAST KENTUCKY

CITY           SKY/WX    TMP DP  RH WIND       PRES   REMARKS
JACKSON        CLOUDY    56  52  86 NW3       30.05F
LONDON         CLOUDY    59  49  69 NW5       30.06S
SOMERSET       CLOUDY    59  46  63 NW3       30.07F
MIDDLESBORO    CLOUDY    62  51  66 N10       30.05S
MONTICELLO     CLOUDY    64  48  56 NW8       30.08F
$$





USA.gov is the U.S. government's official web portal to all federal, state and local government web resources and services.